Time,TemperatureF,DewpointF,PressureIn,WindDirection,WindDirectionDegrees,WindSpeedMPH,WindSpeedGustMPH,Humidity,HourlyPrecipIn,Conditions,Clouds,dailyrainin,SoftwareType,DateUTC
2013-11-03 00:03:00,45.0,44.2,29.07,North,360,0.0,39.0,97,0.00,,,0.00,VWS V14.01,2013-11-03 04:03:00,
2013-11-03 00:08:00,45.0,44.2,29.08,North,360,0.0,39.0,97,0.00,,,0.00,VWS V14.01,2013-11-03 04:08:00,
2013-11-03 00:13:00,45.0,44.2,29.08,North,360,2.0,39.0,97,0.00,,,0.00,VWS V14.01,2013-11-03 04:13:00,
2013-11-03 00:18:00,45.0,44.2,29.08,NW,315,4.0,39.0,97,0.00,,,0.00,VWS V14.01,2013-11-03 04:18:00,
2013-11-03 00:23:00,45.0,44.5,29.08,NE,45,1.0,39.0,98,0.00,,,0.00,VWS V14.01,2013-11-03 04:23:00,
2013-11-03 00:28:00,45.0,44.2,29.08,NE,45,0.0,39.0,97,0.00,,,0.00,VWS V14.01,2013-11-03 04:28:00,
2013-11-03 00:33:00,45.0,44.5,29.08,NE,45,0.0,39.0,98,0.00,,,0.00,VWS V14.01,2013-11-03 04:33:00,
2013-11-03 00:38:00,45.0,43.9,29.09,NW,315,7.0,39.0,96,0.00,,,0.00,VWS V14.01,2013-11-03 04:38:00,
2013-11-03 00:43:00,45.0,43.9,29.09,NW,315,3.0,39.0,96,0.00,,,0.00,VWS V14.01,2013-11-03 04:43:00,
2013-11-03 00:48:00,45.0,43.9,29.09,West,270,2.0,39.0,96,0.00,,,0.00,VWS V14.01,2013-11-03 04:48:00,
2013-11-03 00:53:00,45.0,43.9,29.09,North,360,1.0,39.0,96,0.00,,,0.00,VWS V14.01,2013-11-03 04:53:00,
2013-11-03 00:58:00,45.0,44.5,29.09,SSW,202,5.0,39.0,98,0.00,,,0.00,VWS V14.01,2013-11-03 04:58:00,
2013-11-03 01:03:00,45.0,44.5,29.09,SW,225,1.0,39.0,98,0.00,,,0.00,VWS V14.01,2013-11-03 05:03:00,
2013-11-03 01:08:00,44.0,43.2,29.11,WSW,247,0.0,39.0,97,0.00,,,0.00,VWS V14.01,2013-11-03 05:08:00,
2013-11-03 01:13:00,44.0,43.2,29.11,NNW,337,5.0,39.0,97,0.00,,,0.00,VWS V14.01,2013-11-03 05:13:00,
2013-11-03 01:18:00,44.0,43.2,29.12,NW,315,5.0,39.0,97,0.00,,,0.00,VWS V14.01,2013-11-03 05:18:00,
2013-11-03 01:23:00,44.0,42.9,29.12,NNW,337,6.0,39.0,96,0.00,,,0.00,VWS V14.01,2013-11-03 05:23:00,
2013-11-03 01:28:00,45.0,43.7,29.11,North,360,5.0,39.0,95,0.00,,,0.00,VWS V14.01,2013-11-03 05:28:00,
2013-11-03 01:33:00,45.0,43.4,29.11,North,360,4.0,39.0,94,0.00,,,0.00,VWS V14.01,2013-11-03 05:33:00,
2013-11-03 01:38:00,45.0,43.4,29.13,NW,315,10.0,39.0,94,0.00,,,0.00,VWS V14.01,2013-11-03 05:38:00,
2013-11-03 01:43:00,45.0,43.1,29.13,WSW,247,3.0,39.0,93,0.00,,,0.00,VWS V14.01,2013-11-03 05:43:00,
2013-11-03 01:48:00,45.0,43.1,29.13,West,270,2.0,39.0,93,0.00,,,0.00,VWS V14.01,2013-11-03 05:48:00,
2013-11-03 01:53:00,45.0,43.1,29.13,SSW,202,6.0,39.0,93,0.00,,,0.00,VWS V14.01,2013-11-03 05:53:00,
2013-11-03 01:57:00,45.0,42.8,29.14,North,360,12.0,39.0,92,0.00,,,0.00,VWS V14.01,2013-11-03 05:57:00,
2013-11-03 01:02:00,45.0,42.8,29.14,North,360,8.0,39.0,92,0.00,,,0.00,VWS V14.01,2013-11-03 06:02:00,
2013-11-03 01:07:00,45.0,42.5,29.14,NNE,22,6.0,39.0,91,0.00,,,0.00,VWS V14.01,2013-11-03 06:07:00,
2013-11-03 01:12:00,45.0,42.5,29.14,West,270,5.0,39.0,91,0.00,,,0.00,VWS V14.01,2013-11-03 06:12:00,
2013-11-03 01:17:00,45.0,42.5,29.14,NW,315,7.0,39.0,91,0.00,,,0.00,VWS V14.01,2013-11-03 06:17:00,
2013-11-03 01:22:00,45.0,42.8,29.14,North,360,4.0,39.0,92,0.00,,,0.00,VWS V14.01,2013-11-03 06:22:00,
2013-11-03 01:27:00,45.0,42.8,29.14,WNW,292,3.0,39.0,92,0.00,,,0.00,VWS V14.01,2013-11-03 06:27:00,
2013-11-03 01:32:00,45.0,42.8,29.14,NNW,337,6.0,39.0,92,0.00,,,0.00,VWS V14.01,2013-11-03 06:32:00,
2013-11-03 01:37:00,45.0,42.8,29.15,West,270,2.0,39.0,92,0.00,,,0.00,VWS V14.01,2013-11-03 06:37:00,
2013-11-03 01:42:00,44.0,41.8,29.15,North,360,4.0,39.0,92,0.00,,,0.00,VWS V14.01,2013-11-03 06:42:00,
2013-11-03 01:47:00,44.0,42.1,29.15,NW,315,5.0,39.0,93,0.00,,,0.00,VWS V14.01,2013-11-03 06:47:00,
2013-11-03 01:52:00,44.0,41.3,29.15,NNW,337,10.0,39.0,90,0.00,,,0.00,VWS V14.01,2013-11-03 06:52:00,
2013-11-03 01:57:00,44.0,41.0,29.15,NNW,337,6.0,39.0,89,0.00,,,0.00,VWS V14.01,2013-11-03 06:57:00,
2013-11-03 02:02:00,44.0,41.0,29.15,NNW,337,4.0,39.0,89,0.00,,,0.00,VWS V14.01,2013-11-03 07:02:00,
2013-11-03 02:07:00,44.0,40.7,29.16,WSW,247,3.0,39.0,88,0.00,,,0.00,VWS V14.01,2013-11-03 07:07:00,
2013-11-03 02:12:00,44.0,40.7,29.16,WNW,292,9.0,39.0,88,0.00,,,0.00,VWS V14.01,2013-11-03 07:12:00,
2013-11-03 02:17:00,44.0,40.4,29.17,North,360,7.0,39.0,87,0.00,,,0.00,VWS V14.01,2013-11-03 07:17:00,
2013-11-03 02:22:00,43.0,38.8,29.17,NNW,337,6.0,39.0,85,0.00,,,0.00,VWS V14.01,2013-11-03 07:22:00,
2013-11-03 02:27:00,43.0,38.5,29.18,NNW,337,6.0,39.0,84,0.00,,,0.00,VWS V14.01,2013-11-03 07:27:00,
2013-11-03 02:32:00,43.0,37.3,29.18,NNW,337,6.0,39.0,80,0.00,,,0.00,VWS V14.01,2013-11-03 07:32:00,
2013-11-03 02:37:00,43.0,37.6,29.18,WNW,292,6.0,39.0,81,0.00,,,0.00,VWS V14.01,2013-11-03 07:37:00,
2013-11-03 02:42:00,42.0,35.7,29.18,NW,315,6.0,39.0,78,0.00,,,0.00,VWS V14.01,2013-11-03 07:42:00,
2013-11-03 02:47:00,42.0,35.3,29.19,North,360,9.0,39.0,77,0.00,,,0.00,VWS V14.01,2013-11-03 07:47:00,
2013-11-03 02:52:00,42.0,35.3,29.19,NNW,337,8.0,39.0,77,0.00,,,0.00,VWS V14.01,2013-11-03 07:52:00,
2013-11-03 02:57:00,42.0,35.7,29.20,West,270,7.0,39.0,78,0.00,,,0.00,VWS V14.01,2013-11-03 07:57:00,
2013-11-03 03:02:00,42.0,35.7,29.20,NNW,337,9.0,39.0,78,0.00,,,0.00,VWS V14.01,2013-11-03 08:02:00,
2013-11-03 03:07:00,42.0,35.7,29.20,North,360,4.0,39.0,78,0.00,,,0.00,VWS V14.01,2013-11-03 08:07:00,
2013-11-03 03:12:00,42.0,35.7,29.20,WNW,292,7.0,39.0,78,0.00,,,0.00,VWS V14.01,2013-11-03 08:12:00,
2013-11-03 03:17:00,42.0,35.7,29.21,North,360,7.0,39.0,78,0.00,,,0.00,VWS V14.01,2013-11-03 08:17:00,
2013-11-03 03:22:00,42.0,36.0,29.21,North,360,8.0,39.0,79,0.00,,,0.00,VWS V14.01,2013-11-03 08:22:00,
2013-11-03 03:27:00,42.0,36.0,29.21,WNW,292,6.0,39.0,79,0.00,,,0.00,VWS V14.01,2013-11-03 08:27:00,
2013-11-03 03:32:00,42.0,36.0,29.21,NNW,337,12.0,39.0,79,0.00,,,0.00,VWS V14.01,2013-11-03 08:32:00,
2013-11-03 03:37:00,41.0,35.3,29.22,NNW,337,6.0,39.0,80,0.00,,,0.00,VWS V14.01,2013-11-03 08:37:00,
2013-11-03 03:42:00,41.0,35.3,29.22,NNW,337,6.0,39.0,80,0.00,,,0.00,VWS V14.01,2013-11-03 08:42:00,
2013-11-03 03:47:00,41.0,35.0,29.22,NW,315,8.0,39.0,79,0.00,,,0.00,VWS V14.01,2013-11-03 08:47:00,
2013-11-03 03:52:00,41.0,35.0,29.22,NW,315,6.0,39.0,79,0.00,,,0.00,VWS V14.01,2013-11-03 08:52:00,
2013-11-03 03:57:00,41.0,35.0,29.23,NNW,337,9.0,39.0,79,0.00,,,0.00,VWS V14.01,2013-11-03 08:57:00,
2013-11-03 04:02:00,41.0,34.7,29.23,WNW,292,8.0,39.0,78,0.00,,,0.00,VWS V14.01,2013-11-03 09:02:00,
2013-11-03 04:07:00,41.0,34.7,29.23,NW,315,4.0,39.0,78,0.00,,,0.00,VWS V14.01,2013-11-03 09:07:00,
2013-11-03 04:12:00,41.0,34.7,29.23,NW,315,3.0,39.0,78,0.00,,,0.00,VWS V14.01,2013-11-03 09:12:00,
2013-11-03 04:17:00,41.0,34.7,29.24,NW,315,6.0,39.0,78,0.00,,,0.00,VWS V14.01,2013-11-03 09:17:00,
2013-11-03 04:22:00,41.0,34.7,29.24,NNE,22,2.0,39.0,78,0.00,,,0.00,VWS V14.01,2013-11-03 09:22:00,
2013-11-03 04:27:00,41.0,34.7,29.25,NW,315,9.0,39.0,78,0.00,,,0.00,VWS V14.01,2013-11-03 09:27:00,
2013-11-03 04:32:00,41.0,34.3,29.25,NNW,337,6.0,39.0,77,0.00,,,0.00,VWS V14.01,2013-11-03 09:32:00,
2013-11-03 04:37:00,41.0,34.3,29.26,NW,315,5.0,39.0,77,0.00,,,0.00,VWS V14.01,2013-11-03 09:37:00,
2013-11-03 04:42:00,41.0,34.0,29.26,North,360,7.0,39.0,76,0.00,,,0.00,VWS V14.01,2013-11-03 09:42:00,
2013-11-03 04:47:00,41.0,34.0,29.26,NW,315,6.0,39.0,76,0.00,,,0.00,VWS V14.01,2013-11-03 09:47:00,
2013-11-03 04:52:00,41.0,34.3,29.26,NNW,337,4.0,39.0,77,0.00,,,0.00,VWS V14.01,2013-11-03 09:52:00,
2013-11-03 04:57:00,41.0,34.0,29.27,WNW,292,7.0,39.0,76,0.00,,,0.00,VWS V14.01,2013-11-03 09:57:00,
2013-11-03 05:02:00,41.0,34.3,29.27,NNW,337,5.0,39.0,77,0.00,,,0.00,VWS V14.01,2013-11-03 10:02:00,
2013-11-03 05:07:00,41.0,34.3,29.28,NW,315,8.0,39.0,77,0.00,,,0.00,VWS V14.01,2013-11-03 10:07:00,
2013-11-03 05:12:00,41.0,34.0,29.28,WNW,292,7.0,39.0,76,0.00,,,0.00,VWS V14.01,2013-11-03 10:12:00,
2013-11-03 05:17:00,41.0,34.0,29.29,North,360,9.0,39.0,76,0.00,,,0.00,VWS V14.01,2013-11-03 10:17:00,
2013-11-03 05:22:00,41.0,34.0,29.29,NNW,337,11.0,39.0,76,0.00,,,0.00,VWS V14.01,2013-11-03 10:22:00,
2013-11-03 05:27:00,41.0,34.0,29.29,NW,315,7.0,39.0,76,0.00,,,0.00,VWS V14.01,2013-11-03 10:27:00,
2013-11-03 05:32:00,41.0,34.7,29.29,ENE,67,0.0,39.0,78,0.00,,,0.00,VWS V14.01,2013-11-03 10:32:00,
2013-11-03 05:37:00,41.0,34.7,29.29,WNW,292,11.0,39.0,78,0.00,,,0.00,VWS V14.01,2013-11-03 10:37:00,
2013-11-03 05:42:00,41.0,34.7,29.29,WNW,292,6.0,39.0,78,0.00,,,0.00,VWS V14.01,2013-11-03 10:42:00,
2013-11-03 05:47:00,41.0,34.7,29.30,NNE,22,8.0,39.0,78,0.00,,,0.00,VWS V14.01,2013-11-03 10:47:00,
2013-11-03 05:52:00,41.0,35.0,29.30,NNW,337,7.0,39.0,79,0.00,,,0.00,VWS V14.01,2013-11-03 10:52:00,
2013-11-03 05:57:00,40.0,34.0,29.31,NNE,22,9.0,39.0,79,0.00,,,0.00,VWS V14.01,2013-11-03 10:57:00,
2013-11-03 06:02:00,40.0,33.7,29.31,NNW,337,6.0,39.0,78,0.00,,,0.00,VWS V14.01,2013-11-03 11:02:00,
2013-11-03 06:07:00,40.0,34.0,29.31,WNW,292,10.0,39.0,79,0.00,,,0.00,VWS V14.01,2013-11-03 11:07:00,
2013-11-03 06:12:00,40.0,34.0,29.31,North,360,5.0,39.0,79,0.00,,,0.00,VWS V14.01,2013-11-03 11:12:00,
2013-11-03 06:17:00,40.0,33.7,29.32,NNW,337,6.0,39.0,78,0.00,,,0.00,VWS V14.01,2013-11-03 11:17:00,
2013-11-03 06:22:00,40.0,34.0,29.32,NNW,337,6.0,39.0,79,0.00,,,0.00,VWS V14.01,2013-11-03 11:22:00,
2013-11-03 06:27:00,40.0,33.7,29.32,NNW,337,10.0,39.0,78,0.00,,,0.00,VWS V14.01,2013-11-03 11:27:00,
2013-11-03 06:32:00,40.0,33.7,29.32,North,360,12.0,39.0,78,0.00,,,0.00,VWS V14.01,2013-11-03 11:32:00,
2013-11-03 06:37:00,40.0,33.7,29.33,North,360,7.0,39.0,78,0.00,,,0.00,VWS V14.01,2013-11-03 11:37:00,
2013-11-03 06:41:00,40.0,33.7,29.33,North,360,13.0,39.0,78,0.00,,,0.00,VWS V14.01,2013-11-03 11:41:00,
2013-11-03 06:46:00,40.0,33.7,29.33,North,360,7.0,39.0,78,0.00,,,0.00,VWS V14.01,2013-11-03 11:46:00,
2013-11-03 06:51:00,40.0,34.0,29.33,NNE,22,12.0,39.0,79,0.00,,,0.00,VWS V14.01,2013-11-03 11:51:00,
2013-11-03 06:56:00,40.0,34.0,29.34,NNE,22,7.0,39.0,79,0.00,,,0.00,VWS V14.01,2013-11-03 11:56:00,
2013-11-03 07:01:00,40.0,34.0,29.34,NNE,22,9.0,39.0,79,0.00,,,0.00,VWS V14.01,2013-11-03 12:01:00,
2013-11-03 07:06:00,39.0,33.4,29.35,North,360,4.0,39.0,80,0.00,,,0.00,VWS V14.01,2013-11-03 12:06:00,
2013-11-03 07:11:00,40.0,34.3,29.35,NNW,337,7.0,39.0,80,0.00,,,0.00,VWS V14.01,2013-11-03 12:11:00,
2013-11-03 07:16:00,39.0,33.4,29.36,NE,45,1.0,39.0,80,0.00,,,0.00,VWS V14.01,2013-11-03 12:16:00,
2013-11-03 07:21:00,39.0,33.0,29.36,NNW,337,8.0,39.0,79,0.00,,,0.00,VWS V14.01,2013-11-03 12:21:00,
2013-11-03 07:26:00,39.0,32.7,29.37,NW,315,10.0,39.0,78,0.00,,,0.00,VWS V14.01,2013-11-03 12:26:00,
2013-11-03 07:31:00,39.0,32.7,29.37,NW,315,10.0,39.0,78,0.00,,,0.00,VWS V14.01,2013-11-03 12:31:00,
2013-11-03 07:36:00,39.0,32.7,29.39,North,360,8.0,39.0,78,0.00,,,0.00,VWS V14.01,2013-11-03 12:36:00,
2013-11-03 07:41:00,39.0,33.0,29.39,North,360,7.0,39.0,79,0.00,,,0.00,VWS V14.01,2013-11-03 12:41:00,
2013-11-03 07:46:00,39.0,33.0,29.40,North,360,10.0,39.0,79,0.00,,,0.00,VWS V14.01,2013-11-03 12:46:00,
2013-11-03 07:51:00,38.0,32.4,29.40,NNW,337,6.0,39.0,80,0.00,,,0.00,VWS V14.01,2013-11-03 12:51:00,
2013-11-03 07:56:00,38.0,32.4,29.40,NNE,22,6.0,39.0,80,0.00,,,0.00,VWS V14.01,2013-11-03 12:56:00,
2013-11-03 08:01:00,38.0,32.7,29.40,North,360,13.0,39.0,81,0.00,,,0.00,VWS V14.01,2013-11-03 13:01:00,
2013-11-03 08:06:00,38.0,32.4,29.41,North,360,7.0,39.0,80,0.00,,,0.00,VWS V14.01,2013-11-03 13:06:00,
2013-11-03 08:11:00,38.0,32.4,29.41,North,360,5.0,39.0,80,0.00,,,0.00,VWS V14.01,2013-11-03 13:11:00,
2013-11-03 08:16:00,38.0,32.4,29.42,North,360,1.0,39.0,80,0.00,,,0.00,VWS V14.01,2013-11-03 13:16:00,
2013-11-03 08:21:00,38.0,31.8,29.42,North,360,9.0,39.0,78,0.00,,,0.00,VWS V14.01,2013-11-03 13:21:00,
2013-11-03 08:26:00,38.0,31.4,29.42,North,360,8.0,39.0,77,0.00,,,0.00,VWS V14.01,2013-11-03 13:26:00,
2013-11-03 08:31:00,38.0,31.1,29.42,NE,45,6.0,39.0,76,0.00,,,0.00,VWS V14.01,2013-11-03 13:31:00,
2013-11-03 08:36:00,38.0,31.1,29.43,NNE,22,10.0,39.0,76,0.00,,,0.00,VWS V14.01,2013-11-03 13:36:00,
2013-11-03 08:41:00,38.0,30.8,29.43,NW,315,7.0,39.0,75,0.00,,,0.00,VWS V14.01,2013-11-03 13:41:00,
2013-11-03 08:46:00,39.0,31.8,29.42,West,270,4.0,39.0,75,0.00,,,0.00,VWS V14.01,2013-11-03 13:46:00,
2013-11-03 08:51:00,39.0,30.8,29.42,North,360,8.0,39.0,72,0.00,,,0.00,VWS V14.01,2013-11-03 13:51:00,
2013-11-03 08:56:00,39.0,30.1,29.43,WNW,292,13.0,39.0,70,0.00,,,0.00,VWS V14.01,2013-11-03 13:56:00,
2013-11-03 09:01:00,39.0,30.1,29.43,NNW,337,6.0,39.0,70,0.00,,,0.00,VWS V14.01,2013-11-03 14:01:00,
2013-11-03 09:06:00,39.0,29.4,29.43,North,360,7.0,39.0,68,0.00,,,0.00,VWS V14.01,2013-11-03 14:06:00,
2013-11-03 09:11:00,39.0,29.0,29.43,NW,315,2.0,39.0,67,0.00,,,0.00,VWS V14.01,2013-11-03 14:11:00,
2013-11-03 09:16:00,39.0,29.0,29.43,North,360,7.0,39.0,67,0.00,,,0.00,VWS V14.01,2013-11-03 14:16:00,
2013-11-03 09:21:00,39.0,29.0,29.43,WNW,292,6.0,39.0,67,0.00,,,0.00,VWS V14.01,2013-11-03 14:21:00,
2013-11-03 09:26:00,40.0,29.6,29.43,NNW,337,7.0,39.0,66,0.00,,,0.00,VWS V14.01,2013-11-03 14:26:00,
2013-11-03 09:31:00,40.0,29.6,29.43,North,360,4.0,39.0,66,0.00,,,0.00,VWS V14.01,2013-11-03 14:31:00,
2013-11-03 09:36:00,40.0,28.8,29.43,NW,315,10.0,39.0,64,0.00,,,0.00,VWS V14.01,2013-11-03 14:36:00,
2013-11-03 09:41:00,40.0,29.2,29.43,NNW,337,6.0,39.0,65,0.00,,,0.00,VWS V14.01,2013-11-03 14:41:00,
2013-11-03 09:46:00,40.0,29.2,29.44,NNW,337,9.0,39.0,65,0.00,,,0.00,VWS V14.01,2013-11-03 14:46:00,
2013-11-03 09:51:00,40.0,29.9,29.44,NNW,337,6.0,39.0,67,0.00,,,0.00,VWS V14.01,2013-11-03 14:51:00,
2013-11-03 09:56:00,40.0,29.6,29.44,North,360,9.0,39.0,66,0.00,,,0.00,VWS V14.01,2013-11-03 14:56:00,
2013-11-03 10:01:00,40.0,29.6,29.44,North,360,9.0,39.0,66,0.00,,,0.00,VWS V14.01,2013-11-03 15:01:00,
2013-11-03 10:06:00,40.0,29.6,29.45,NNW,337,6.0,39.0,66,0.00,,,0.00,VWS V14.01,2013-11-03 15:06:00,
2013-11-03 10:11:00,40.0,30.3,29.45,WNW,292,7.0,39.0,68,0.00,,,0.00,VWS V14.01,2013-11-03 15:11:00,
2013-11-03 10:16:00,40.0,30.3,29.45,NNE,22,12.0,39.0,68,0.00,,,0.00,VWS V14.01,2013-11-03 15:16:00,
2013-11-03 10:21:00,40.0,30.3,29.45,North,360,12.0,39.0,68,0.00,,,0.00,VWS V14.01,2013-11-03 15:21:00,
2013-11-03 10:26:00,41.0,31.3,29.45,West,270,3.0,39.0,68,0.00,,,0.00,VWS V14.01,2013-11-03 15:26:00,
2013-11-03 10:31:00,41.0,31.3,29.45,NNW,337,9.0,39.0,68,0.00,,,0.00,VWS V14.01,2013-11-03 15:31:00,
2013-11-03 10:36:00,41.0,30.1,29.45,NNE,22,7.0,39.0,65,0.00,,,0.00,VWS V14.01,2013-11-03 15:36:00,
2013-11-03 10:41:00,42.0,31.1,29.45,North,360,6.0,39.0,65,0.00,,,0.00,VWS V14.01,2013-11-03 15:41:00,
2013-11-03 10:46:00,42.0,30.3,29.45,NNE,22,5.0,39.0,63,0.00,,,0.00,VWS V14.01,2013-11-03 15:46:00,
2013-11-03 10:51:00,42.0,29.9,29.45,NE,45,5.0,39.0,62,0.00,,,0.00,VWS V14.01,2013-11-03 15:51:00,
2013-11-03 10:56:00,43.0,30.5,29.45,NNW,337,10.0,39.0,61,0.00,,,0.00,VWS V14.01,2013-11-03 15:56:00,
2013-11-03 11:01:00,43.0,30.9,29.45,NNE,22,7.0,39.0,62,0.00,,,0.00,VWS V14.01,2013-11-03 16:01:00,
2013-11-03 11:06:00,43.0,30.5,29.45,NNW,337,6.0,39.0,61,0.00,,,0.00,VWS V14.01,2013-11-03 16:06:00,
2013-11-03 11:11:00,43.0,30.9,29.45,NW,315,9.0,39.0,62,0.00,,,0.00,VWS V14.01,2013-11-03 16:11:00,
2013-11-03 11:16:00,43.0,30.1,29.45,North,360,4.0,39.0,60,0.00,,,0.00,VWS V14.01,2013-11-03 16:16:00,
2013-11-03 11:21:00,44.0,30.6,29.45,North,360,5.0,39.0,59,0.00,,,0.00,VWS V14.01,2013-11-03 16:21:00,
2013-11-03 11:26:00,44.0,29.8,29.45,WNW,292,3.0,39.0,57,0.00,,,0.00,VWS V14.01,2013-11-03 16:26:00,
2013-11-03 11:31:00,43.0,28.4,29.45,North,360,10.0,39.0,56,0.00,,,0.00,VWS V14.01,2013-11-03 16:31:00,
2013-11-03 11:36:00,43.0,28.0,29.45,North,360,6.0,39.0,55,0.00,,,0.00,VWS V14.01,2013-11-03 16:36:00,
2013-11-03 11:41:00,43.0,27.5,29.45,NW,315,7.0,39.0,54,0.00,,,0.00,VWS V14.01,2013-11-03 16:41:00,
2013-11-03 11:46:00,44.0,28.9,29.45,North,360,6.0,39.0,55,0.00,,,0.00,VWS V14.01,2013-11-03 16:46:00,
2013-11-03 11:51:00,45.0,29.4,29.45,North,360,7.0,39.0,54,0.00,,,0.00,VWS V14.01,2013-11-03 16:51:00,
2013-11-03 11:56:00,45.0,28.9,29.44,North,360,5.0,39.0,53,0.00,,,0.00,VWS V14.01,2013-11-03 16:56:00,
2013-11-03 12:01:00,46.0,28.4,29.44,NE,45,3.0,39.0,50,0.00,,,0.00,VWS V14.01,2013-11-03 17:01:00,
2013-11-03 12:06:00,46.0,27.9,29.43,NE,45,8.0,39.0,49,0.00,,,0.00,VWS V14.01,2013-11-03 17:06:00,
2013-11-03 12:11:00,45.0,28.5,29.43,NNE,22,7.0,39.0,52,0.00,,,0.00,VWS V14.01,2013-11-03 17:11:00,
2013-11-03 12:16:00,45.0,28.5,29.44,NNW,337,4.0,39.0,52,0.00,,,0.00,VWS V14.01,2013-11-03 17:16:00,
2013-11-03 12:21:00,46.0,28.4,29.44,NNE,22,5.0,39.0,50,0.00,,,0.00,VWS V14.01,2013-11-03 17:21:00,
2013-11-03 12:26:00,46.0,27.4,29.44,NE,45,2.0,39.0,48,0.00,,,0.00,VWS V14.01,2013-11-03 17:26:00,
2013-11-03 12:30:00,46.0,28.4,29.44,NNE,22,9.0,39.0,50,0.00,,,0.00,VWS V14.01,2013-11-03 17:30:00,
2013-11-03 12:35:00,47.0,28.3,29.43,NNE,22,5.0,39.0,48,0.00,,,0.00,VWS V14.01,2013-11-03 17:35:00,
2013-11-03 12:40:00,48.0,27.7,29.43,North,360,10.0,39.0,45,0.00,,,0.00,VWS V14.01,2013-11-03 17:40:00,
2013-11-03 12:45:00,48.0,26.6,29.43,North,360,7.0,39.0,43,0.00,,,0.00,VWS V14.01,2013-11-03 17:45:00,
2013-11-03 12:50:00,48.0,26.6,29.43,North,360,7.0,39.0,43,0.00,,,0.00,VWS V14.01,2013-11-03 17:50:00,
2013-11-03 12:55:00,48.0,26.6,29.43,NW,315,0.0,39.0,43,0.00,,,0.00,VWS V14.01,2013-11-03 17:55:00,
2013-11-03 13:00:00,48.0,25.4,29.43,North,360,7.0,39.0,41,0.00,,,0.00,VWS V14.01,2013-11-03 18:00:00,
2013-11-03 13:05:00,48.0,24.9,29.43,North,360,6.0,39.0,40,0.00,,,0.00,VWS V14.01,2013-11-03 18:05:00,
2013-11-03 13:10:00,47.0,24.0,29.43,North,360,9.0,39.0,40,0.00,,,0.00,VWS V14.01,2013-11-03 18:10:00,
2013-11-03 13:15:00,47.0,22.7,29.43,NNW,337,7.0,39.0,38,0.00,,,0.00,VWS V14.01,2013-11-03 18:15:00,
2013-11-03 13:20:00,47.0,20.8,29.43,North,360,6.0,39.0,35,0.00,,,0.00,VWS V14.01,2013-11-03 18:20:00,
2013-11-03 13:25:00,47.0,21.5,29.44,North,360,5.0,39.0,36,0.00,,,0.00,VWS V14.01,2013-11-03 18:25:00,
2013-11-03 13:30:00,46.0,21.2,29.44,NNW,337,9.0,39.0,37,0.00,,,0.00,VWS V14.01,2013-11-03 18:30:00,
2013-11-03 13:35:00,47.0,19.4,29.44,NW,315,4.0,39.0,33,0.00,,,0.00,VWS V14.01,2013-11-03 18:35:00,
2013-11-03 13:40:00,46.0,18.5,29.44,NNW,337,15.0,39.0,33,0.00,,,0.00,VWS V14.01,2013-11-03 18:40:00,
2013-11-03 13:45:00,46.0,19.9,29.45,NNW,337,9.0,39.0,35,0.00,,,0.00,VWS V14.01,2013-11-03 18:45:00,
2013-11-03 13:50:00,46.0,18.5,29.45,NNW,337,3.0,39.0,33,0.00,,,0.00,VWS V14.01,2013-11-03 18:50:00,
2013-11-03 13:55:00,47.0,19.4,29.44,NNE,22,3.0,39.0,33,0.00,,,0.00,VWS V14.01,2013-11-03 18:55:00,
2013-11-03 14:00:00,47.0,19.4,29.44,North,360,7.0,39.0,33,0.00,,,0.00,VWS V14.01,2013-11-03 19:00:00,
2013-11-03 14:05:00,47.0,19.4,29.45,North,360,7.0,39.0,33,0.00,,,0.00,VWS V14.01,2013-11-03 19:05:00,
2013-11-03 14:10:00,47.0,20.1,29.45,North,360,10.0,39.0,34,0.00,,,0.00,VWS V14.01,2013-11-03 19:10:00,
2013-11-03 14:15:00,46.0,18.5,29.45,NNE,22,2.0,39.0,33,0.00,,,0.00,VWS V14.01,2013-11-03 19:15:00,
2013-11-03 14:20:00,46.0,18.5,29.45,NNE,22,6.0,39.0,33,0.00,,,0.00,VWS V14.01,2013-11-03 19:20:00,
2013-11-03 14:25:00,46.0,17.8,29.46,North,360,10.0,39.0,32,0.00,,,0.00,VWS V14.01,2013-11-03 19:25:00,
2013-11-03 14:30:00,46.0,17.8,29.46,NW,315,5.0,39.0,32,0.00,,,0.00,VWS V14.01,2013-11-03 19:30:00,
2013-11-03 14:35:00,46.0,15.5,29.47,NW,315,7.0,39.0,29,0.00,,,0.00,VWS V14.01,2013-11-03 19:35:00,
2013-11-03 14:40:00,45.0,13.1,29.47,NW,315,7.0,39.0,27,0.00,,,0.00,VWS V14.01,2013-11-03 19:40:00,
2013-11-03 14:45:00,46.0,13.1,29.48,NW,315,6.0,39.0,26,0.00,,,0.00,VWS V14.01,2013-11-03 19:45:00,
2013-11-03 14:50:00,45.0,13.1,29.48,NNE,22,9.0,39.0,27,0.00,,,0.00,VWS V14.01,2013-11-03 19:50:00,
2013-11-03 14:55:00,46.0,13.9,29.48,NNW,337,10.0,39.0,27,0.00,,,0.00,VWS V14.01,2013-11-03 19:55:00,
2013-11-03 15:00:00,45.0,13.9,29.48,NNE,22,1.0,39.0,28,0.00,,,0.00,VWS V14.01,2013-11-03 20:00:00,
2013-11-03 15:05:00,46.0,16.3,29.49,NNW,337,6.0,39.0,30,0.00,,,0.00,VWS V14.01,2013-11-03 20:05:00,
2013-11-03 15:10:00,45.0,16.2,29.49,WNW,292,6.0,39.0,31,0.00,,,0.00,VWS V14.01,2013-11-03 20:10:00,
2013-11-03 15:15:00,45.0,16.2,29.49,WNW,292,8.0,39.0,31,0.00,,,0.00,VWS V14.01,2013-11-03 20:15:00,
2013-11-03 15:20:00,45.0,16.9,29.49,WNW,292,9.0,39.0,32,0.00,,,0.00,VWS V14.01,2013-11-03 20:20:00,
2013-11-03 15:25:00,45.0,17.6,29.50,NW,315,4.0,39.0,33,0.00,,,0.00,VWS V14.01,2013-11-03 20:25:00,
2013-11-03 15:30:00,45.0,17.6,29.50,North,360,6.0,39.0,33,0.00,,,0.00,VWS V14.01,2013-11-03 20:30:00,
2013-11-03 15:35:00,45.0,17.6,29.50,West,270,5.0,39.0,33,0.00,,,0.00,VWS V14.01,2013-11-03 20:35:00,
2013-11-03 15:40:00,45.0,19.0,29.50,West,270,7.0,39.0,35,0.00,,,0.00,VWS V14.01,2013-11-03 20:40:00,
2013-11-03 15:45:00,45.0,19.0,29.51,North,360,9.0,39.0,35,0.00,,,0.00,VWS V14.01,2013-11-03 20:45:00,
2013-11-03 15:50:00,44.0,18.1,29.51,WNW,292,4.0,39.0,35,0.00,,,0.00,VWS V14.01,2013-11-03 20:50:00,
2013-11-03 15:55:00,44.0,17.5,29.52,NW,315,6.0,39.0,34,0.00,,,0.00,VWS V14.01,2013-11-03 20:55:00,
2013-11-03 16:00:00,44.0,18.8,29.52,WNW,292,3.0,39.0,36,0.00,,,0.00,VWS V14.01,2013-11-03 21:00:00,
2013-11-03 16:05:00,44.0,18.1,29.52,North,360,0.0,39.0,35,0.00,,,0.00,VWS V14.01,2013-11-03 21:05:00,
2013-11-03 16:10:00,43.0,17.2,29.52,North,360,9.0,39.0,35,0.00,,,0.00,VWS V14.01,2013-11-03 21:10:00,
2013-11-03 16:15:00,43.0,17.9,29.53,WNW,292,2.0,39.0,36,0.00,,,0.00,VWS V14.01,2013-11-03 21:15:00,
2013-11-03 16:20:00,43.0,17.9,29.53,NNW,337,2.0,39.0,36,0.00,,,0.00,VWS V14.01,2013-11-03 21:20:00,
2013-11-03 16:25:00,42.0,16.4,29.54,North,360,6.0,39.0,35,0.00,,,0.00,VWS V14.01,2013-11-03 21:25:00,
2013-11-03 16:30:00,41.0,16.1,29.54,NW,315,4.0,39.0,36,0.00,,,0.00,VWS V14.01,2013-11-03 21:30:00,
2013-11-03 16:35:00,41.0,16.1,29.55,NW,315,6.0,39.0,36,0.00,,,0.00,VWS V14.01,2013-11-03 21:35:00,
2013-11-03 16:40:00,41.0,16.1,29.55,NW,315,4.0,39.0,36,0.00,,,0.00,VWS V14.01,2013-11-03 21:40:00,
2013-11-03 16:45:00,41.0,16.1,29.56,North,360,4.0,39.0,36,0.00,,,0.00,VWS V14.01,2013-11-03 21:45:00,
2013-11-03 16:50:00,40.0,15.9,29.56,NNE,22,7.0,39.0,37,0.00,,,0.00,VWS V14.01,2013-11-03 21:50:00,
2013-11-03 16:55:00,40.0,15.9,29.57,NW,315,6.0,39.0,37,0.00,,,0.00,VWS V14.01,2013-11-03 21:55:00,
2013-11-03 17:00:00,40.0,16.5,29.57,WNW,292,9.0,39.0,38,0.00,,,0.00,VWS V14.01,2013-11-03 22:00:00,
2013-11-03 17:05:00,40.0,15.9,29.57,West,270,7.0,39.0,37,0.00,,,0.00,VWS V14.01,2013-11-03 22:05:00,
2013-11-03 17:10:00,40.0,15.9,29.57,NW,315,7.0,39.0,37,0.00,,,0.00,VWS V14.01,2013-11-03 22:10:00,
2013-11-03 17:15:00,40.0,15.9,29.58,NNW,337,7.0,39.0,37,0.00,,,0.00,VWS V14.01,2013-11-03 22:15:00,
2013-11-03 17:20:00,39.0,15.6,29.58,NW,315,2.0,39.0,38,0.00,,,0.00,VWS V14.01,2013-11-03 22:20:00,
2013-11-03 17:25:00,39.0,15.6,29.59,North,360,6.0,39.0,38,0.00,,,0.00,VWS V14.01,2013-11-03 22:25:00,
2013-11-03 17:30:00,39.0,16.2,29.59,WNW,292,6.0,39.0,39,0.00,,,0.00,VWS V14.01,2013-11-03 22:30:00,
2013-11-03 17:35:00,39.0,16.2,29.60,NNW,337,6.0,39.0,39,0.00,,,0.00,VWS V14.01,2013-11-03 22:35:00,
2013-11-03 17:40:00,38.0,16.4,29.60,NNW,337,7.0,39.0,41,0.00,,,0.00,VWS V14.01,2013-11-03 22:40:00,
2013-11-03 17:45:00,39.0,16.7,29.61,NW,315,6.0,39.0,40,0.00,,,0.00,VWS V14.01,2013-11-03 22:45:00,
2013-11-03 17:50:00,38.0,17.0,29.61,WNW,292,6.0,39.0,42,0.00,,,0.00,VWS V14.01,2013-11-03 22:50:00,
2013-11-03 17:55:00,38.0,16.4,29.61,NNW,337,6.0,39.0,41,0.00,,,0.00,VWS V14.01,2013-11-03 22:55:00,
2013-11-03 18:00:00,38.0,17.0,29.61,North,360,5.0,39.0,42,0.00,,,0.00,VWS V14.01,2013-11-03 23:00:00,
2013-11-03 18:05:00,38.0,17.0,29.62,WNW,292,6.0,39.0,42,0.00,,,0.00,VWS V14.01,2013-11-03 23:05:00,
2013-11-03 18:10:00,37.0,16.1,29.62,WNW,292,6.0,39.0,42,0.00,,,0.00,VWS V14.01,2013-11-03 23:10:00,
2013-11-03 18:15:00,37.0,16.6,29.63,North,360,4.0,39.0,43,0.00,,,0.00,VWS V14.01,2013-11-03 23:15:00,
2013-11-03 18:20:00,37.0,16.6,29.63,NNW,337,4.0,39.0,43,0.00,,,0.00,VWS V14.01,2013-11-03 23:20:00,
2013-11-03 18:25:00,37.0,17.1,29.63,NW,315,6.0,39.0,44,0.00,,,0.00,VWS V14.01,2013-11-03 23:25:00,
2013-11-03 18:30:00,37.0,17.1,29.63,WNW,292,6.0,39.0,44,0.00,,,0.00,VWS V14.01,2013-11-03 23:30:00,
2013-11-03 18:35:00,37.0,17.1,29.64,WNW,292,6.0,39.0,44,0.00,,,0.00,VWS V14.01,2013-11-03 23:35:00,
2013-11-03 18:40:00,37.0,17.1,29.64,NW,315,6.0,39.0,44,0.00,,,0.00,VWS V14.01,2013-11-03 23:40:00,
2013-11-03 18:45:00,37.0,17.1,29.64,WNW,292,10.0,39.0,44,0.00,,,0.00,VWS V14.01,2013-11-03 23:45:00,
2013-11-03 18:50:00,36.0,16.2,29.64,WNW,292,10.0,39.0,44,0.00,,,0.00,VWS V14.01,2013-11-03 23:50:00,
2013-11-03 18:55:00,37.0,16.1,29.64,NNW,337,2.0,39.0,42,0.00,,,0.00,VWS V14.01,2013-11-03 23:55:00,
2013-11-03 19:00:00,36.0,16.2,29.64,North,360,9.0,39.0,44,0.00,,,0.00,VWS V14.01,2013-11-04 00:00:00,
2013-11-03 19:05:00,36.0,16.2,29.65,West,270,5.0,39.0,44,0.00,,,0.00,VWS V14.01,2013-11-04 00:05:00,
2013-11-03 19:10:00,36.0,16.2,29.65,NW,315,7.0,39.0,44,0.00,,,0.00,VWS V14.01,2013-11-04 00:10:00,
2013-11-03 19:15:00,36.0,16.2,29.65,NW,315,1.0,39.0,44,0.00,,,0.00,VWS V14.01,2013-11-04 00:15:00,
2013-11-03 19:20:00,36.0,16.7,29.65,WNW,292,8.0,39.0,45,0.00,,,0.00,VWS V14.01,2013-11-04 00:20:00,
2013-11-03 19:25:00,36.0,16.2,29.66,WNW,292,6.0,39.0,44,0.00,,,0.00,VWS V14.01,2013-11-04 00:25:00,
2013-11-03 19:30:00,35.0,15.3,29.66,West,270,6.0,39.0,44,0.00,,,0.00,VWS V14.01,2013-11-04 00:30:00,
2013-11-03 19:35:00,35.0,15.3,29.67,NW,315,7.0,39.0,44,0.00,,,0.00,VWS V14.01,2013-11-04 00:35:00,
2013-11-03 19:40:00,35.0,16.3,29.67,NNW,337,5.0,39.0,46,0.00,,,0.00,VWS V14.01,2013-11-04 00:40:00,
2013-11-03 19:45:00,35.0,15.8,29.68,North,360,5.0,39.0,45,0.00,,,0.00,VWS V14.01,2013-11-04 00:45:00,
2013-11-03 19:50:00,35.0,15.8,29.68,West,270,9.0,39.0,45,0.00,,,0.00,VWS V14.01,2013-11-04 00:50:00,
2013-11-03 19:55:00,35.0,15.8,29.69,NNW,337,7.0,39.0,45,0.00,,,0.00,VWS V14.01,2013-11-04 00:55:00,
2013-11-03 20:00:00,34.0,15.4,29.69,NW,315,13.0,39.0,46,0.00,,,0.00,VWS V14.01,2013-11-04 01:00:00,
2013-11-03 20:05:00,35.0,16.3,29.69,NW,315,10.0,39.0,46,0.00,,,0.00,VWS V14.01,2013-11-04 01:05:00,
2013-11-03 20:10:00,34.0,15.4,29.69,NE,45,7.0,39.0,46,0.00,,,0.00,VWS V14.01,2013-11-04 01:10:00,
2013-11-03 20:15:00,35.0,15.8,29.69,NW,315,10.0,39.0,45,0.00,,,0.00,VWS V14.01,2013-11-04 01:15:00,
2013-11-03 20:20:00,34.0,15.4,29.69,WNW,292,9.0,39.0,46,0.00,,,0.00,VWS V14.01,2013-11-04 01:20:00,
2013-11-03 20:25:00,34.0,15.4,29.69,NW,315,5.0,39.0,46,0.00,,,0.00,VWS V14.01,2013-11-04 01:25:00,
2013-11-03 20:30:00,34.0,15.9,29.71,WNW,292,8.0,39.0,47,0.00,,,0.00,VWS V14.01,2013-11-04 01:30:00,
2013-11-03 20:35:00,34.0,15.4,29.71,NW,315,7.0,39.0,46,0.00,,,0.00,VWS V14.01,2013-11-04 01:35:00,
2013-11-03 20:40:00,34.0,15.9,29.71,NNW,337,10.0,39.0,47,0.00,,,0.00,VWS V14.01,2013-11-04 01:40:00,
2013-11-03 20:45:00,34.0,16.4,29.71,NNE,22,6.0,39.0,48,0.00,,,0.00,VWS V14.01,2013-11-04 01:45:00,
2013-11-03 20:50:00,33.0,15.5,29.72,NW,315,7.0,39.0,48,0.00,,,0.00,VWS V14.01,2013-11-04 01:50:00,
2013-11-03 20:55:00,33.0,15.0,29.72,North,360,5.0,39.0,47,0.00,,,0.00,VWS V14.01,2013-11-04 01:55:00,
2013-11-03 21:00:00,33.0,15.9,29.72,NW,315,4.0,39.0,49,0.00,,,0.00,VWS V14.01,2013-11-04 02:00:00,
2013-11-03 21:04:00,33.0,16.4,29.72,North,360,8.0,39.0,50,0.00,,,0.00,VWS V14.01,2013-11-04 02:04:00,
2013-11-03 21:09:00,33.0,16.4,29.73,NNW,337,9.0,39.0,50,0.00,,,0.00,VWS V14.01,2013-11-04 02:09:00,
2013-11-03 21:14:00,33.0,16.9,29.73,NNW,337,6.0,39.0,51,0.00,,,0.00,VWS V14.01,2013-11-04 02:14:00,
2013-11-03 21:19:00,32.0,16.4,29.74,NNW,337,6.0,39.0,52,0.00,,,0.00,VWS V14.01,2013-11-04 02:19:00,
2013-11-03 21:24:00,32.0,16.8,29.74,WNW,292,1.0,39.0,53,0.00,,,0.00,VWS V14.01,2013-11-04 02:24:00,
2013-11-03 21:29:00,32.0,16.8,29.75,West,270,4.0,39.0,53,0.00,,,0.00,VWS V14.01,2013-11-04 02:29:00,
2013-11-03 21:34:00,32.0,16.8,29.75,North,360,4.0,39.0,53,0.00,,,0.00,VWS V14.01,2013-11-04 02:34:00,
2013-11-03 21:39:00,32.0,16.8,29.76,NNW,337,5.0,39.0,53,0.00,,,0.00,VWS V14.01,2013-11-04 02:39:00,
2013-11-03 21:44:00,32.0,17.2,29.76,NNW,337,8.0,39.0,54,0.00,,,0.00,VWS V14.01,2013-11-04 02:44:00,
2013-11-03 21:49:00,32.0,17.7,29.76,North,360,8.0,39.0,55,0.00,,,0.00,VWS V14.01,2013-11-04 02:49:00,
2013-11-03 21:54:00,32.0,17.2,29.76,NNW,337,4.0,39.0,54,0.00,,,0.00,VWS V14.01,2013-11-04 02:54:00,
2013-11-03 21:59:00,32.0,17.7,29.76,North,360,9.0,39.0,55,0.00,,,0.00,VWS V14.01,2013-11-04 02:59:00,
2013-11-03 22:04:00,32.0,18.1,29.76,NW,315,5.0,39.0,56,0.00,,,0.00,VWS V14.01,2013-11-04 03:04:00,
2013-11-03 22:09:00,32.0,18.5,29.77,NNW,337,6.0,39.0,57,0.00,,,0.00,VWS V14.01,2013-11-04 03:09:00,
2013-11-03 22:14:00,31.0,17.6,29.77,NNW,337,9.0,39.0,57,0.00,,,0.00,VWS V14.01,2013-11-04 03:14:00,
2013-11-03 22:19:00,31.0,17.6,29.76,NW,315,5.0,39.0,57,0.00,,,0.00,VWS V14.01,2013-11-04 03:19:00,
2013-11-03 22:24:00,31.0,17.6,29.76,West,270,4.0,39.0,57,0.00,,,0.00,VWS V14.01,2013-11-04 03:24:00,
2013-11-03 22:29:00,31.0,17.6,29.76,NNW,337,7.0,39.0,57,0.00,,,0.00,VWS V14.01,2013-11-04 03:29:00,
2013-11-03 22:34:00,31.0,17.6,29.76,North,360,5.0,39.0,57,0.00,,,0.00,VWS V14.01,2013-11-04 03:34:00,
2013-11-03 22:39:00,31.0,18.0,29.77,NW,315,6.0,39.0,58,0.00,,,0.00,VWS V14.01,2013-11-04 03:39:00,
2013-11-03 22:44:00,31.0,18.0,29.77,North,360,6.0,39.0,58,0.00,,,0.00,VWS V14.01,2013-11-04 03:44:00,
2013-11-03 22:49:00,31.0,18.0,29.77,WNW,292,6.0,39.0,58,0.00,,,0.00,VWS V14.01,2013-11-04 03:49:00,
2013-11-03 22:54:00,31.0,18.0,29.77,North,360,6.0,39.0,58,0.00,,,0.00,VWS V14.01,2013-11-04 03:54:00,
2013-11-03 22:59:00,31.0,18.4,29.77,NNW,337,4.0,39.0,59,0.00,,,0.00,VWS V14.01,2013-11-04 03:59:00,
2013-11-03 23:04:00,30.0,17.8,29.77,NNW,337,6.0,39.0,60,0.00,,,0.00,VWS V14.01,2013-11-04 04:04:00,
2013-11-03 23:09:00,30.0,17.8,29.78,NNW,337,5.0,39.0,60,0.00,,,0.00,VWS V14.01,2013-11-04 04:09:00,
2013-11-03 23:14:00,30.0,17.8,29.78,North,360,5.0,39.0,60,0.00,,,0.00,VWS V14.01,2013-11-04 04:14:00,
2013-11-03 23:19:00,30.0,17.8,29.78,NNW,337,6.0,39.0,60,0.00,,,0.00,VWS V14.01,2013-11-04 04:19:00,
2013-11-03 23:24:00,30.0,18.2,29.78,NNW,337,7.0,39.0,61,0.00,,,0.00,VWS V14.01,2013-11-04 04:24:00,
2013-11-03 23:29:00,30.0,18.6,29.78,NNW,337,2.0,39.0,62,0.00,,,0.00,VWS V14.01,2013-11-04 04:29:00,
2013-11-03 23:34:00,29.0,17.6,29.78,NNE,22,1.0,39.0,62,0.00,,,0.00,VWS V14.01,2013-11-04 04:34:00,
2013-11-03 23:39:00,30.0,18.6,29.78,North,360,6.0,39.0,62,0.00,,,0.00,VWS V14.01,2013-11-04 04:39:00,
2013-11-03 23:44:00,29.0,17.6,29.78,WNW,292,3.0,39.0,62,0.00,,,0.00,VWS V14.01,2013-11-04 04:44:00,
2013-11-03 23:49:00,29.0,17.6,29.79,WNW,292,4.0,39.0,62,0.00,,,0.00,VWS V14.01,2013-11-04 04:49:00,
2013-11-03 23:54:00,29.0,17.6,29.79,North,360,4.0,39.0,62,0.00,,,0.00,VWS V14.01,2013-11-04 04:54:00,
2013-11-03 23:59:00,29.0,17.6,29.80,North,360,6.0,39.0,62,0.00,,,0.00,VWS V14.01,2013-11-04 04:59:00,